[[{"header":{"parameterUnit":"m.s-1","parameterCategory":1,"la1":30.2991,"la2":30.254,"lo1":-89.0895,"lo2":-89.0444,"dy":0.0017,"dx":0.0017,"nx":28,"ny":28,"refTime":"2025-03-06T09:00:00:Z","depth":0,"parameterNumber":2,"parameterNumberName":"U-component_of_WINDS"},"data":[0,0,0,0,0,0,0,0,0,0,0,0,0,0,0,0,0,0,0,0,0,0,0,0,0,0,0,0,0,0,0,0,0,0,0,0,0,0,0,0,0,0,0,0,0,0,0,0,0,0,0,0,0,0,0,0,0,0,1.5589,1.559,0,1.5709,1.571,1.5711,1.5713,1.5712,1.571,1.5709,1.5834,1.5838,1.5843,0,0,0,0,0,0,0,0,0,0,0,0,0,1.5364,1.5368,1.5589,1.559,1.5592,1.5708,1.571,1.5712,1.5713,1.5712,1.571,1.5708,1.5832,1.5838,1.5843,0,0,0,0,0,0,0,0,0,0,0,0,0,1.5471,1.537,1.5589,1.5607,1.5609,1.5708,1.571,1.5712,1.5714,1.5712,1.5709,1.5707,1.583,1.5837,1.5844,1.5933,0,0,1.5866,1.5869,0,0,0,0,0,0,0,0,1.5465,1.5479,1.5602,1.5606,1.5609,1.5694,1.5677,1.5786,1.5714,1.5674,1.5709,1.5706,1.5789,1.5799,1.5827,1.5939,1.5945,1.5866,1.5871,1.5874,1.5876,0,0,0,0,0,0,0,1.5457,1.5474,1.5636,1.5604,1.5608,1.561,1.5622,1.5698,1.5743,1.5678,1.5678,1.5692,1.579,1.582,1.583,1.5946,1.5866,1.5873,1.5877,1.588,1.614,1.6142,0,0,0,0,0,0,1.5446,1.5468,1.5632,1.564,1.553,1.5616,1.563,1.5669,1.5742,1.5751,1.5694,1.5692,1.5809,1.5822,1.5834,1.5945,1.5874,1.588,1.5884,1.6137,1.614,1.6143,0,0,0,0,0,0,1.5441,1.5461,1.5628,1.5554,1.5575,1.5622,1.5666,1.5672,1.5702,1.5754,1.5763,1.5716,1.5808,1.5824,1.5909,1.5949,1.5884,1.589,1.6134,1.6138,1.6142,1.6166,0,0,0,0,0,0,1.5435,1.5459,1.5493,1.5555,1.5579,1.57,1.5668,1.5676,1.5714,1.5712,1.5777,1.5786,1.5807,1.5898,1.5916,1.5958,1.5896,1.6131,1.6136,1.6141,1.6162,1.617,1.6178,0,0,0,0,0,1.5427,1.5495,1.5494,1.5514,1.5622,1.5702,1.5716,1.5739,1.5717,1.5752,1.5786,1.5784,1.5942,1.5907,1.5927,1.5971,1.6128,1.6135,1.614,1.6159,1.6169,1.6178,0,0,0,0,0,0,1.5437,1.5503,1.5503,1.5593,1.5642,1.5702,1.5747,1.5749,1.5805,1.5801,1.5828,1.5842,1.5927,1.5958,1.5918,1.6063,1.6033,1.6043,1.604,1.605,1.6058,1.6049,1.5902,0,0,0,0,0,1.5449,1.5508,1.5563,1.5637,1.5661,1.57,1.5735,1.5749,1.58,1.5821,1.5861,1.5912,1.5973,1.6013,1.6072,1.6166,1.6181,1.6207,1.6214,1.6221,1.623,1.6283,1.6296,1.6163,1.6163,1.6163,0,0,1.5476,1.552,1.5555,1.564,1.5679,1.574,1.5717,1.5782,1.5828,1.5831,1.5914,1.5945,1.6004,1.6094,1.6135,1.6122,1.6269,1.6228,1.6233,1.6239,1.629,1.6303,1.6314,1.6167,1.6166,1.6166,0,0,1.5557,1.5595,1.5661,1.5701,1.5761,1.5786,1.5802,1.5862,1.5883,1.5966,1.597,1.6025,1.6129,1.6172,1.6207,1.6304,1.6304,1.6322,1.6364,1.6416,1.6426,1.6435,1.6472,1.6484,1.6331,1.6331,1.6331,0,1.5583,1.5674,1.5696,1.5761,1.5799,1.5804,1.5873,1.5911,1.5987,1.6013,1.5997,1.6129,1.6168,1.6269,1.6293,1.6321,1.6341,1.6315,1.6423,1.6432,1.6441,1.6476,1.6489,1.6333,1.6332,1.6332,1.6332,0,1.5704,1.5767,1.5814,1.5887,1.593,1.5997,1.603,1.6071,1.6081,1.6108,1.6194,1.6241,1.6311,1.6335,1.6346,1.6438,1.6428,1.6417,1.6387,1.6456,1.6489,1.6502,1.6335,1.6335,1.6334,1.6334,0,0,1.5794,1.5879,1.5896,1.5929,1.5996,1.6046,1.6113,1.618,1.6216,1.6268,1.6327,1.6415,1.6405,1.6445,1.646,1.6505,1.6581,1.6489,1.6491,1.6506,1.6688,1.6697,1.6712,1.6581,1.6584,1.6586,1.6683,0,1.5883,1.6002,1.6024,1.6129,1.6188,1.6194,1.6253,1.6301,1.6328,1.6383,1.6414,1.6477,1.6458,1.6483,1.6528,1.6562,1.6618,1.6555,1.6637,1.664,1.6624,1.6729,1.6739,1.6828,1.6696,1.6699,1.67,0,1.6002,1.6057,1.6168,1.6227,1.6253,1.6305,1.637,1.6422,1.6477,1.6493,1.6538,1.6548,1.662,1.6586,1.6686,1.6643,1.6677,1.67,1.6704,1.6713,1.6675,1.6743,1.6857,1.6871,1.6721,1.6719,1.6717,0,1.6059,1.616,1.624,1.6269,1.6339,1.6376,1.6408,1.646,1.65,1.6556,1.6582,1.6646,1.6682,1.6732,1.6759,1.6732,1.6858,1.6826,1.6875,1.6874,1.6902,1.69,1.7025,1.6922,1.6922,1.6922,1.6921,0,1.6156,1.6223,1.6267,1.6316,1.6392,1.6417,1.6492,1.6523,1.657,1.6626,1.6635,1.6687,1.672,1.6777,1.6799,1.688,1.6895,1.6912,1.6917,1.6912,1.691,1.6936,1.6931,1.6925,1.6924,1.6924,1.6923,0,1.6232,1.6263,1.6351,1.6411,1.6428,1.6481,1.6533,1.6582,1.6609,1.668,1.6698,1.6742,1.681,1.6842,1.6927,1.6942,1.7033,1.7034,1.7015,1.7017,1.7064,1.706,1.7211,1.7233,1.7115,1.7116,1.7117,0,1.6293,1.6345,1.6411,1.6448,1.6481,1.6542,1.6582,1.6609,1.6651,1.6718,1.6759,1.6827,1.6883,1.6993,1.7032,1.7098,1.71,1.7149,1.711,1.7104,1.7103,1.71,1.7106,1.7156,1.7157,1.7158,1.7159,0,1.6397,1.641,1.6468,1.6532,1.658,1.6631,1.6682,1.6712,1.6747,1.6794,1.6864,1.6908,1.6995,1.7063,1.7131,1.7164,1.7169,1.7171,1.7186,1.7182,1.7169,1.7178,1.7035,1.7168,1.7167,1.7166,1.7166,1.7165,1.6469,1.6516,1.657,1.6634,1.6675,1.6722,1.6771,1.6804,1.6863,1.6935,1.6948,1.7022,1.7077,1.7169,1.7204,1.7264,1.7253,1.7274,1.728,1.7285,1.7288,1.7158,1.7276,1.7276,1.7276,1.7276,1.7276,0,1.6575,1.661,1.6668,1.6739,1.679,1.6788,1.6844,1.6888,1.6953,1.7003,1.7059,1.714,1.7206,1.7251,1.7319,1.7358,1.7362,1.7375,1.7374,1.7381,1.7294,1.7275,1.7372,1.7371,1.7371,1.7371,1.7371,1.7371,1.6636,1.6716,1.6736,1.6837,1.6872,1.6945,1.6977,1.7021,1.7062,1.7151,1.7207,1.7235,1.7284,1.7356,1.7418,1.7429,1.7454,1.7468,1.748,1.7397,1.7387,1.7378,1.736,1.7473,1.7473,1.7563,1.7564,1.7564]},{"header":{"parameterUnit":"m.s-1","parameterCategory":1,"la1":30.2991,"la2":30.254,"lo1":-89.0895,"lo2":-89.0444,"dy":0.0017,"dx":0.0017,"nx":28,"ny":28,"refTime":"2025-03-06T09:00:00:Z","depth":0,"parameterNumber":3,"parameterNumberName":"V-component_of_WINDS"},"data":[0,0,0,0,0,0,0,0,0,0,0,0,0,0,0,0,0,0,0,0,0,0,0,0,0,0,0,0,0,0,0,0,0,0,0,0,0,0,0,0,0,0,0,0,0,0,0,0,0,0,0,0,0,0,0,0,0,0,2.6097,2.6099,0,2.6321,2.6324,2.6326,2.6383,2.6382,2.638,2.6379,2.6615,2.6622,2.6629,0,0,0,0,0,0,0,0,0,0,0,0,0,2.5723,2.5729,2.6096,2.6099,2.6102,2.6321,2.6324,2.6327,2.6384,2.6382,2.638,2.6378,2.6612,2.6621,2.663,0,0,0,0,0,0,0,0,0,0,0,0,0,2.591,2.5731,2.6096,2.6157,2.6164,2.632,2.6324,2.6328,2.6384,2.6382,2.638,2.6378,2.6609,2.662,2.6631,2.6745,0,0,2.6666,2.6671,0,0,0,0,0,0,0,0,2.5899,2.5924,2.6145,2.6153,2.6162,2.6322,2.6278,2.6468,2.6384,2.6301,2.6379,2.6377,2.6519,2.6538,2.6585,2.6756,2.6766,2.6667,2.6674,2.6679,2.6682,0,0,0,0,0,0,0,2.5886,2.5914,2.6186,2.6148,2.6158,2.6175,2.6199,2.6315,2.642,2.6308,2.6312,2.6338,2.6524,2.6574,2.6591,2.6769,2.6667,2.6677,2.6684,2.6689,2.7047,2.7049,0,0,0,0,0,0,2.5862,2.5903,2.6178,2.6192,2.6022,2.6183,2.621,2.6273,2.6418,2.6438,2.634,2.634,2.6555,2.6578,2.6599,2.6743,2.6679,2.669,2.6696,2.7044,2.7047,2.705,0,0,0,0,0,0,2.5854,2.5886,2.6169,2.6049,2.6086,2.6192,2.6262,2.6278,2.6329,2.6442,2.6462,2.6371,2.6555,2.6583,2.6708,2.6752,2.6695,2.6705,2.7041,2.7045,2.7049,2.703,0,0,0,0,0,0,2.5843,2.5883,2.5925,2.605,2.6093,2.6273,2.6264,2.6284,2.6347,2.635,2.6477,2.6496,2.6555,2.6691,2.672,2.6767,2.6714,2.7037,2.7043,2.7047,2.7027,2.7033,2.7038,0,0,0,0,0,2.5829,2.5912,2.5927,2.596,2.6148,2.6275,2.63,2.6364,2.6351,2.6396,2.6469,2.6492,2.6742,2.6703,2.6736,2.6787,2.7035,2.7041,2.7047,2.7025,2.7032,2.7038,0,0,0,0,0,0,2.5792,2.5929,2.5948,2.6073,2.6161,2.6284,2.6343,2.6369,2.6465,2.6463,2.6541,2.6569,2.6689,2.6751,2.6705,2.6906,2.6889,2.6902,2.6861,2.6869,2.6874,2.6857,2.6724,0,0,0,0,0,2.5798,2.5888,2.6004,2.6103,2.6147,2.6237,2.6295,2.6336,2.6432,2.6471,2.6553,2.6647,2.6747,2.6811,2.6909,2.7036,2.7066,2.7088,2.7093,2.7097,2.7107,2.7182,2.7193,2.707,2.707,2.707,0,0,2.5812,2.5898,2.5951,2.6098,2.6172,2.6265,2.6268,2.6366,2.6437,2.6486,2.6609,2.6673,2.6783,2.6909,2.697,2.6964,2.7148,2.7104,2.7106,2.7116,2.7189,2.72,2.7211,2.7074,2.7073,2.7073,0,0,2.5885,2.5959,2.605,2.6124,2.6235,2.6294,2.6316,2.6435,2.6479,2.6603,2.6642,2.6728,2.6898,2.6975,2.7037,2.714,2.7166,2.717,2.7198,2.7269,2.7279,2.7288,2.7326,2.7339,2.718,2.718,2.718,0,2.589,2.603,2.6094,2.6191,2.6256,2.6302,2.6397,2.6466,2.6604,2.6648,2.664,2.6855,2.6932,2.7078,2.7103,2.7151,2.718,2.7156,2.7272,2.7281,2.7291,2.7329,2.7343,2.7179,2.7179,2.7179,2.7179,0,2.603,2.6127,2.6188,2.6318,2.639,2.6485,2.6566,2.6631,2.6666,2.6727,2.6854,2.6948,2.7067,2.7104,2.7141,2.7257,2.725,2.7256,2.7241,2.7301,2.7338,2.7353,2.7179,2.7179,2.7179,2.7179,0,0,2.6087,2.6252,2.6273,2.6333,2.6459,2.6537,2.6635,2.6749,2.6804,2.6898,2.6984,2.7126,2.7132,2.7202,2.7248,2.731,2.7388,2.7308,2.7312,2.7321,2.7524,2.752,2.7535,2.7405,2.7408,2.741,2.7515,0,2.6178,2.6352,2.6413,2.6559,2.665,2.6696,2.6782,2.687,2.6929,2.7018,2.7084,2.7185,2.7184,2.7227,2.729,2.7364,2.743,2.7358,2.7488,2.7492,2.746,2.7555,2.7551,2.7645,2.753,2.7532,2.7534,0,2.6306,2.64,2.6554,2.6669,2.671,2.6786,2.6896,2.6979,2.708,2.712,2.7197,2.7239,2.7345,2.7323,2.7472,2.7422,2.7479,2.7523,2.7529,2.7545,2.7518,2.7575,2.7677,2.7691,2.7557,2.7555,2.7554,0,2.6334,2.6499,2.6613,2.6663,2.68,2.6853,2.6913,2.7012,2.7077,2.7174,2.7218,2.7326,2.7386,2.7471,2.7541,2.7518,2.7685,2.7668,2.7723,2.7721,2.7757,2.7754,2.7871,2.7791,2.7791,2.779,2.779,0,2.643,2.6522,2.6628,2.6698,2.6804,2.6874,2.6978,2.7041,2.7129,2.7213,2.726,2.7339,2.7426,2.7518,2.7574,2.769,2.7717,2.7753,2.7767,2.775,2.7745,2.779,2.7786,2.7794,2.7793,2.7793,2.7792,0,2.6479,2.6553,2.6681,2.68,2.6832,2.6905,2.7008,2.7079,2.714,2.7248,2.7277,2.7374,2.7484,2.7562,2.7704,2.7742,2.7868,2.7881,2.7833,2.784,2.7891,2.7886,2.8042,2.8067,2.7968,2.7969,2.7969,0,2.6536,2.6608,2.6735,2.6794,2.6854,2.6949,2.7015,2.7087,2.7155,2.7276,2.7333,2.7446,2.754,2.7714,2.7799,2.7908,2.7925,2.7972,2.7942,2.7923,2.7928,2.7924,2.7932,2.7977,2.7978,2.7978,2.7979,0,2.6629,2.6662,2.6755,2.6862,2.6939,2.7027,2.7115,2.7162,2.725,2.7324,2.7436,2.7509,2.7653,2.7765,2.7883,2.7947,2.7979,2.7987,2.8006,2.799,2.796,2.7979,2.7847,2.7984,2.7983,2.7983,2.7983,2.7983,2.6686,2.6753,2.6852,2.6955,2.7029,2.711,2.7183,2.7253,2.7347,2.7469,2.7506,2.7623,2.7725,2.7885,2.7951,2.8045,2.8043,2.807,2.8077,2.8083,2.8083,2.7943,2.8067,2.8067,2.8067,2.8067,2.8067,0,2.6783,2.6849,2.6943,2.7064,2.7145,2.7165,2.7264,2.7332,2.7433,2.7524,2.7615,2.7745,2.7854,2.7947,2.8061,2.8118,2.8136,2.8146,2.8144,2.8158,2.8078,2.8051,2.813,2.813,2.813,2.813,2.813,2.813,2.6843,2.6958,2.7003,2.7155,2.7222,2.7335,2.739,2.7466,2.7539,2.7681,2.7771,2.7831,2.7924,2.8044,2.8146,2.8171,2.8212,2.8219,2.8247,2.8171,2.8164,2.8157,2.8132,2.8227,2.8227,2.8321,2.8321,2.8322]}]]